TimeEDT,TemperatureF,Dew PointF,Humidity,Sea Level PressureIn,VisibilityMPH,Wind Direction,Wind SpeedMPH,Gust SpeedMPH,PrecipitationIn,Events,Conditions,WindDirDegrees,DateUTC
12:54 AM,69.1,62.1,78,30.04,10.0,SW,8.1,-,N/A,,Partly Cloudy,230,2013-08-27 04:54:00
1:54 AM,69.1,63.0,81,30.03,10.0,WSW,9.2,-,N/A,,Overcast,250,2013-08-27 05:54:00
2:54 AM,69.1,63.0,81,30.02,10.0,West,9.2,-,0.00,Rain,Light Rain,260,2013-08-27 06:54:00
3:41 AM,66.2,64.4,94,30.05,7.0,West,9.2,-,0.00,,Overcast,260,2013-08-27 07:41:00
3:54 AM,66.9,64.9,93,30.01,7.0,West,10.4,17.3,0.00,Rain,Light Rain,260,2013-08-27 07:54:00
4:54 AM,68.0,64.0,87,30.02,8.0,West,8.1,-,0.00,,Overcast,260,2013-08-27 08:54:00
5:11 AM,68.0,64.4,88,30.06,7.0,West,8.1,-,N/A,,Overcast,260,2013-08-27 09:11:00
5:54 AM,66.9,64.9,93,30.01,7.0,West,10.4,-,N/A,,Overcast,260,2013-08-27 09:54:00
6:54 AM,66.9,64.9,93,30.03,5.0,West,9.2,-,N/A,,Overcast,280,2013-08-27 10:54:00
7:38 AM,66.2,64.4,94,30.06,4.0,West,9.2,-,N/A,,Overcast,270,2013-08-27 11:38:00
7:54 AM,66.9,64.9,93,30.02,4.0,WSW,6.9,-,N/A,,Overcast,250,2013-08-27 11:54:00
8:54 AM,68.0,66.0,93,30.02,3.0,West,6.9,-,N/A,,Overcast,260,2013-08-27 12:54:00
9:54 AM,69.1,66.0,90,30.03,3.0,West,8.1,-,N/A,,Overcast,280,2013-08-27 13:54:00
10:54 AM,72.0,66.9,84,30.03,4.0,WNW,6.9,-,N/A,,Haze,290,2013-08-27 14:54:00
11:22 AM,71.6,66.2,83,30.07,4.0,WNW,8.1,-,N/A,,Haze,290,2013-08-27 15:22:00
11:54 AM,73.0,66.9,81,30.04,5.0,WNW,9.2,-,N/A,,Haze,300,2013-08-27 15:54:00
12:28 PM,75.2,66.2,73,30.07,7.0,WNW,10.4,-,N/A,,Scattered Clouds,290,2013-08-27 16:28:00
12:54 PM,75.9,66.0,71,30.01,7.0,WNW,6.9,-,N/A,,Mostly Cloudy,300,2013-08-27 16:54:00
1:11 PM,75.2,66.2,73,30.06,7.0,West,10.4,-,N/A,,Mostly Cloudy,260,2013-08-27 17:11:00
1:31 PM,73.4,66.2,78,30.06,6.0,West,8.1,-,N/A,,Haze,270,2013-08-27 17:31:00
1:54 PM,73.9,66.9,79,30.01,6.0,West,8.1,-,N/A,,Haze,280,2013-08-27 17:54:00
2:21 PM,71.6,68.0,88,30.05,3.0,SW,11.5,-,0.00,Rain,Light Rain,230,2013-08-27 18:21:00
2:29 PM,69.8,68.0,94,30.05,1.8,WSW,8.1,-,0.00,Rain,Light Rain,250,2013-08-27 18:29:00
2:51 PM,69.8,69.8,100,30.04,0.8,WSW,5.8,-,0.10,Rain,Light Rain,240,2013-08-27 18:51:00
2:54 PM,69.1,69.1,100,30.00,0.8,WSW,6.9,-,0.10,Rain,Light Rain,250,2013-08-27 18:54:00
2:58 PM,69.8,69.8,100,30.03,1.5,SW,8.1,-,0.00,Rain,Light Rain,230,2013-08-27 18:58:00
3:12 PM,69.8,69.8,100,30.03,2.0,WSW,8.1,-,0.00,Thunderstorm,Overcast,250,2013-08-27 19:12:00
3:24 PM,71.6,69.8,94,30.03,3.0,West,5.8,-,0.00,,Overcast,260,2013-08-27 19:24:00
3:46 PM,71.6,69.8,94,30.02,5.0,SSW,3.5,-,0.00,,Mostly Cloudy,210,2013-08-27 19:46:00
3:54 PM,71.1,68.0,90,29.98,5.0,WSW,4.6,-,0.00,,Mostly Cloudy,250,2013-08-27 19:54:00
4:28 PM,71.6,66.2,83,30.02,10.0,West,8.1,-,N/A,,Mostly Cloudy,270,2013-08-27 20:28:00
4:54 PM,72.0,68.0,87,29.97,9.0,West,5.8,-,N/A,,Partly Cloudy,260,2013-08-27 20:54:00
5:54 PM,72.0,68.0,87,29.97,8.0,West,3.5,-,N/A,,Scattered Clouds,270,2013-08-27 21:54:00
6:13 PM,71.6,68.0,88,30.01,7.0,West,8.1,-,N/A,,Overcast,270,2013-08-27 22:13:00
6:54 PM,72.0,66.9,84,29.97,7.0,West,8.1,-,N/A,,Overcast,260,2013-08-27 22:54:00
7:21 PM,71.6,66.2,83,30.02,7.0,West,10.4,-,N/A,,Mostly Cloudy,260,2013-08-27 23:21:00
7:54 PM,70.0,66.0,87,29.99,7.0,West,9.2,-,N/A,,Partly Cloudy,260,2013-08-27 23:54:00
8:13 PM,69.8,66.2,88,30.02,7.0,West,9.2,-,N/A,,Mostly Cloudy,270,2013-08-28 00:13:00
8:54 PM,69.1,66.9,93,30.00,7.0,West,4.6,-,N/A,,Overcast,260,2013-08-28 00:54:00
9:54 PM,68.0,66.9,96,30.00,7.0,WSW,6.9,-,N/A,,Mostly Cloudy,250,2013-08-28 01:54:00
10:10 PM,68.0,66.2,94,30.03,7.0,WSW,8.1,-,N/A,,Scattered Clouds,250,2013-08-28 02:10:00
10:54 PM,68.0,66.0,93,30.00,7.0,West,6.9,-,N/A,,Mostly Cloudy,260,2013-08-28 02:54:00
11:54 PM,69.1,66.9,93,30.00,5.0,West,6.9,-,N/A,,Overcast,260,2013-08-28 03:54:00